Location: Krakow
(50.0830°N, 19.9170°E)
Time: 21:07:51
(UTC+02:00)

BUGSAT 1 - Visible Passes

Search period start: 23 June 2025 00:00
Search period end: 03 July 2025 00:00
Orbit: 512 x 554 km, 98.1° (Epoch: 22 June)

Date Brightness Start Highest point End Pass type
(mag) Time Alt. Az. Time Alt. Az. Time Alt. Az.
23 Jun ? 22:31:12 10° SSW 22:34:47 39° W 22:38:28 10° NNW visible
24 Jun ? 22:21:33 10° S 22:25:17 49° W 22:29:06 10° NNW visible
25 Jun ? 22:11:59 10° S 22:15:47 64° WSW 22:19:40 10° NNW visible
26 Jun ? 22:02:26 10° SSE 22:06:17 82° WSW 22:10:14 10° NNW visible
27 Jun ? 21:52:57 10° SSE 21:56:48 79° ENE 22:00:45 10° NNW visible
27 Jun ? 23:30:36 10° WSW 23:31:43 11° W 23:32:50 10° WNW visible
28 Jun ? 21:43:31 10° SSE 21:47:20 62° ENE 21:51:14 10° N visible
28 Jun ? 23:20:01 10° WSW 23:22:06 14° W 23:24:12 10° WNW visible
29 Jun ? 21:34:08 10° SE 21:37:52 48° ENE 21:41:41 10° N visible
29 Jun ? 23:09:52 10° SW 23:12:30 17° W 23:15:10 10° NW visible
30 Jun ? 22:59:52 10° SW 23:02:54 22° W 23:05:59 10° NW visible
01 Jul ? 22:49:59 10° SSW 22:53:19 27° W 22:56:42 10° NW visible
02 Jul ? 22:40:11 10° SSW 22:43:45 34° W 22:47:21 10° NNW visible
